Location: Mococo
(38.0255°N, 122.1161°W)
Time: 12:08:33
(UTC+00:00)

COSMOS 2455 - Pass Details

Date: 13 February 2026
Orbit: 900 x 908 km, 67.1° (Epoch: 17 March)

Event Time Altitude Azimuth Distance (km) Brightness Sun altitude
Exits shadow 14:06:12 14° 269° (W) 2,297 4.3 -11.3°
Maximum altitude 14:09:42 23° 311° (NW) 1,846 4.0 -10.6°
Drops below altitude 10° 14:14:21 10° 2° (N) 2,598 5.2 -9.7°
Sets 14:17:28 0° 17° (NNE) 3,543 6.0 -9.1°
